Weather History for Fort Hood, TX

Change the Weather History Date:

Wednesday, October 16, 2013

  Actual Average Record
Temperature  
Mean Temperature 58 °F -  
Max Temperature 64 °F 76 °F 87 °F (1996)
Min Temperature 53 °F 56 °F 44 °F (2001)
Degree Days  
Heating Degree Days 6    
Growing Degree Days 8 (Base 50)    
Moisture  
Dew Point 52 °F    
Average Humidity 85    
Maximum Humidity 100    
Minimum Humidity 38    
Precipitation  
Precipitation 1.33 in - - ()
Sea Level Pressure  
Sea Level Pressure 30.06 in    
Wind  
Wind Speed 12 mph (North)    
Max Wind Speed 17 mph    
Max Gust Speed 24 mph    
Visibility 6 miles    
Events Rain    
Averages and records for this station are not official NWS values.
T = Trace of Precipitation, MM = Missing Value Source: NWS Daily Summary

Daily Weather History Graph

Daily Weather History Graph

Search for Another Location

Airport:

Trip Planner

Search our weather history database for the weather conditions in past years. The results will help you decide how hot, cold, wet, or windy it might be!

Date:

Astronomy

Oct. 16, 2013 Rise Set
Actual Time 7:34 AM CDT 6:58 PM CDT
Civil Twilight 7:10 AM CDT 7:22 PM CDT
Nautical Twilight 6:42 AM CDT 7:50 PM CDT
Astronomical Twilight 6:14 AM CDT 8:18 PM CDT
Moon 5:32 PM CDT (10/16) 5:12 AM CDT (10/16)
Length of Visible Light 12h 12m
Length of Day
11h 23m
Waxing Gibbous, 94% of the Moon is Illuminated
Oct 16
Waxing Gibbous
Oct 18
Full
Oct 26
Last Quarter
Nov 3
New
Nov 9
First Quarter

Hourly Weather History & Observations

Time (CDT) Temp. Dew Point Humidity Pressure Visibility Wind Dir Wind Speed Gust Speed Precip Events Conditions
12:40 AM 55.4 °F 51.8 °F 88% 30.01 in 5.0 mi North 10.4 mph - N/A Rain Light Rain
12:55 AM 55.4 °F 51.8 °F 88% 30.01 in 3.0 mi North 10.4 mph - N/A Rain Rain
1:55 AM 55.4 °F 51.8 °F 88% 30.00 in 3.0 mi North 11.5 mph - N/A Rain Rain
2:25 AM 53.6 °F 51.8 °F 94% 30.01 in 2.0 mi North 15.0 mph - N/A Rain Heavy Rain
2:42 AM 53.6 °F 51.8 °F 94% 30.00 in 3.0 mi North 10.4 mph - N/A Rain Light Rain
2:55 AM 53.6 °F 51.8 °F 94% 30.01 in 2.0 mi North 15.0 mph - N/A Rain Rain
3:55 AM 53.6 °F 51.8 °F 94% 30.01 in 2.0 mi North 15.0 mph - N/A Rain Rain
4:07 AM 53.6 °F 51.8 °F 94% 30.01 in 3.0 mi North 11.5 mph - N/A Rain Light Rain
4:55 AM 53.6 °F 51.8 °F 94% 30.03 in 3.0 mi North 12.7 mph - N/A Rain Light Rain
5:20 AM 53.6 °F 51.8 °F 94% 30.01 in 3.0 mi North 10.4 mph - N/A Rain Light Rain
5:55 AM 53.6 °F 51.8 °F 94% 30.03 in 3.0 mi North 10.4 mph - N/A Rain Light Rain
6:16 AM 53.6 °F 28.4 °F 38% 30.02 in 3.0 mi NW 11.5 mph - N/A Rain Light Rain
6:27 AM 53.6 °F 30.2 °F 41% 30.02 in 3.0 mi NW 15.0 mph - N/A Rain Light Rain
6:55 AM 53.6 °F 51.8 °F 94% 30.03 in 3.0 mi NNW 13.8 mph - N/A Rain Rain
7:05 AM 53.6 °F 51.8 °F 94% 30.03 in 4.0 mi North 12.7 mph - N/A Rain Light Rain
7:33 AM 53.6 °F 51.8 °F 94% 30.04 in 4.0 mi North 13.8 mph - N/A Rain Light Rain
7:47 AM 53.6 °F 51.8 °F 94% 30.04 in 6.0 mi North 3.5 mph - N/A Rain Light Rain
7:51 AM 53.6 °F 51.8 °F 94% 30.04 in 6.0 mi NNW 11.5 mph - N/A Rain Light Rain
7:55 AM 53.6 °F 51.8 °F 94% 30.02 in 6.0 mi NNW 11.5 mph - N/A Rain Light Rain
8:30 AM 53.6 °F 51.8 °F 94% 30.05 in 7.0 mi North 17.3 mph - N/A   Overcast
8:48 AM 53.6 °F 51.8 °F 94% 30.07 in 7.0 mi North 15.0 mph - N/A Rain Light Rain
8:50 AM 53.6 °F 51.8 °F 94% 30.07 in 7.0 mi North 16.1 mph - N/A Rain Light Rain
8:55 AM 53.6 °F 51.8 °F 94% 30.11 in 7.0 mi North 17.3 mph - N/A Rain Light Rain
9:55 AM 53.6 °F 51.8 °F 94% 30.12 in 7.0 mi North 12.7 mph - N/A   Overcast
10:55 AM 53.6 °F 53.6 °F 100% 30.12 in 7.0 mi North 16.1 mph - N/A Rain Light Rain
11:18 AM 55.4 °F 53.6 °F 94% 30.10 in 7.0 mi North 12.7 mph - N/A Rain Light Rain
11:43 AM 55.4 °F 53.6 °F 94% 30.10 in 6.0 mi North 15.0 mph 24.2 mph N/A Rain Light Rain
11:55 AM 55.4 °F 53.6 °F 94% 30.12 in 6.0 mi North 17.3 mph 23.0 mph N/A Rain Light Rain
12:15 PM 55.4 °F 53.6 °F 94% 30.09 in 6.0 mi North 15.0 mph - N/A Rain Light Rain
12:55 PM 55.4 °F 53.6 °F 94% 30.12 in 6.0 mi North 13.8 mph - N/A Rain Light Rain
1:03 PM 57.2 °F 51.8 °F 82% 30.07 in 6.0 mi North 11.5 mph - N/A Rain Light Rain
1:32 PM 57.2 °F 53.6 °F 88% 30.07 in 6.0 mi NNW 11.5 mph - N/A Rain Light Rain
1:55 PM 57.2 °F 53.6 °F 88% 30.11 in 6.0 mi NNW 11.5 mph - N/A Rain Light Rain
2:15 PM 57.2 °F 53.6 °F 88% 30.08 in 7.0 mi NNW 9.2 mph - N/A   Overcast
2:35 PM 59.0 °F 53.6 °F 82% 30.08 in 7.0 mi NNW 12.7 mph - N/A   Overcast
2:55 PM 60.8 °F 53.6 °F 77% 30.09 in 7.0 mi North 12.7 mph 19.6 mph N/A   Overcast
3:32 PM 60.8 °F 53.6 °F 77% 30.06 in 7.0 mi North 12.7 mph - N/A   Overcast
3:46 PM 60.8 °F 53.6 °F 77% 30.07 in 7.0 mi North 12.7 mph - N/A   Overcast
3:55 PM 60.8 °F 53.6 °F 77% 30.08 in 7.0 mi North 10.4 mph - N/A   Overcast
4:55 PM 64.4 °F 55.4 °F 73% 30.09 in 7.0 mi North 8.1 mph - N/A   Overcast
5:55 PM 64.4 °F 53.6 °F 68% 30.06 in 7.0 mi North 9.2 mph - N/A   Overcast
6:40 PM 62.6 °F 53.6 °F 72% 30.04 in 7.0 mi North 4.6 mph - N/A   Overcast
6:55 PM 62.6 °F 53.6 °F 72% 30.05 in 7.0 mi North 5.8 mph - N/A   Overcast
7:55 PM 62.6 °F 51.8 °F 68% 30.04 in 7.0 mi North 10.4 mph - N/A   Overcast
8:55 PM 60.8 °F 51.8 °F 72% 30.05 in 7.0 mi North 4.6 mph - N/A   Overcast
9:55 PM 60.8 °F 51.8 °F 72% 30.09 in 7.0 mi NNE 6.9 mph - N/A   Overcast
10:55 PM 59.0 °F 51.8 °F 77% 30.08 in 7.0 mi North 12.7 mph - N/A   Mostly Cloudy
11:55 PM 55.4 °F 50.0 °F 82% 30.09 in 7.0 mi NNW 5.8 mph - N/A   Scattered Clouds